Location: Fouquenies
(49.4624°N, 2.0492°E)
Time: 14:11:18
(UTC+00:00)

Cosmos 1741 Rocket - Pass Details

Date: 03 February 2023
Orbit: 761 x 781 km, 74.0° (Epoch: 21 March)

Event Time Altitude Azimuth Distance (km) Brightness Sun altitude
Rises 18:30:58 0° 179° (S) 3,247 7.3 -16.5°
Reaches altitude 10° 18:33:27 10° 172° (S) 2,326 6.5 -16.9°
Maximum altitude 18:38:22 41° 104° (ESE) 1,128 4.4 -17.7°
Enters shadow 18:40:35 27° 55° (NE) 1,457 5.0 -18.0°
